Weather Roundup
Issued by NWS

Home | Current Version | Previous Version | Graphics & Text | Print | Product List | Glossary Off
Versions: 1 2 3 4 5 6 7 8 9 10 11 12 13 14 15 16 17 18 19 20 21 22 23 24 25 26 27 28 29 30 31 32 33 34 35 36 37 38 39 40 41 42 43 44 45 46 47 48 49 50

000
NZUS93 KARX 290510
HRRWXR

CURRENT HOURLY OBSERVATIONS ACROSS
MUCH OF THE UPPER MISSISSIPPI VALLEY
NATIONAL WEATHER SERVICE LA CROSSE WI
1200 AM CDT THU JUN 29 2017


...SOUTHEAST MINNESOTA...


CITY           SKY/WX    TMP DP  RH WIND       PRES   REMARKS
ROCHESTER      CLOUDY    66  65  96 S12       29.68S
ROCHESTER/MAYO FAIR      68  67  95 S12       29.66S
WINONA         CLOUDY    70  64  83 SW6       29.64R
AUSTIN         PTCLDY    66  64  94 CALM      29.68R
ALBERT LEA     PTCLDY    66  66 100 W6        29.68R
DODGE CENTER   CLOUDY    66  64  94 SW8       29.67R
PRESTON        MOCLDY    65  63  93 SW8       29.68S
OWATONNA       CLOUDY    70  63  78 W10       29.67R
FARIBAULT      PTCLDY    70  61  73 W9G16     29.66R
$$

...ELSEWHERE IN MINNESOTA...


CITY           SKY/WX    TMP DP  RH WIND       PRES   REMARKS
MINNEAPOLIS    CLOUDY    70  59  68 W14       29.62S
INTNL FALLS    LGT RAIN  61  58  90 N7        29.64S
DULUTH         DRIZZLE   59  59 100 CALM      29.54R FOG
RED WING       CLOUDY    72  63  73 W8        29.60R
REDWOOD FALLS  CLEAR     67  60  78 NW8       29.68R
MANKATO        CLEAR     68  61  78 W5        29.67S
WORTHINGTON    CLEAR     65  62  90 N5        29.74R
FAIRMONT       CLEAR     69  64  84 NW8       29.70R
$$

...SOUTHWEST WISCONSIN...


CITY           SKY/WX    TMP DP  RH WIND       PRES   REMARKS
LA CROSSE      LGT RAIN  70  66  87 S10       29.64S
PRAIRIE DU CHI CLOUDY    67  64  91 CALM      29.68S
BOSCOBEL       CLOUDY    68  66  93 SE3       29.71R
LONE ROCK      MOCLDY    68  65  90 W3        29.69R
PLATTEVILLE    CLOUDY    66  66 100 CALM      29.71R
FORT MC COY    CLOUDY    64  64  98 CALM      29.64F
CAMP DOUGLAS   CLOUDY    68  65  89 SW12G22   29.61F
MAUSTON-NEW LI DRIZZLE   68  65  88 SW9       29.62R
VIROQUA        CLOUDY    65  65 100 S9        29.68F
WIS DELLS      CLOUDY    66  64  91 S12       29.67F
$$

...ELSEWHERE IN WISCONSIN...


CITY           SKY/WX    TMP DP  RH WIND       PRES   REMARKS
MILWAUKEE      LGT RAIN  66  65  96 S17G25    29.72F
MADISON        CLOUDY    66  65  96 S7        29.70S
GREEN BAY      CLOUDY    67  64  90 S13       29.65S
EAU CLAIRE     MOCLDY    66  64  93 S8        29.59R
BLACK RVR FLS  MOCLDY    67  67 100 SW7       29.61S
MEDFORD        CLOUDY    64  63  97 S6        29.62R
WAUSAU         CLOUDY    65  65 100 S10       29.61S
WIS RAPIDS     CLOUDY    67  65  93 CALM      29.64S
MARSHFIELD     CLOUDY    65  63  93 S8        29.62R FOG
RICE LAKE      CLOUDY    67  63  86 SW6       29.59R
$$

...NORTHEAST IOWA...


CITY           SKY/WX    TMP DP  RH WIND       PRES   REMARKS
WATERLOO       CLOUDY    69  62  78 SW9       29.67R
DUBUQUE        CLOUDY    70  67  90 SW6       29.71R
DECORAH        CLOUDY    66  63  88 CALM      29.69R
MASON CITY     CLOUDY    69  66  90 SW7       29.71R
CHARLES CITY   LGT RAIN  68  68 100 CALM      29.70R
OELWEIN        CLOUDY    66  64  94 W6        29.69R
$$

...ELSEWHERE IN IOWA...


CITY           SKY/WX    TMP DP  RH WIND       PRES   REMARKS
DES MOINES     CLOUDY    70  66  87 SW7       29.71R
IOWA CITY      CLOUDY    76  69  79 SW6       29.71S
FORT DODGE     PTCLDY    68  64  88 CALM      29.69S
MARSHALLTOWN   CLOUDY    68  65  90 S8        29.69R
CEDAR RAPIDS   CLOUDY    72  70  93 SW9       29.68S
$$

...NORTHERN ILLINOIS...


CITY           SKY/WX    TMP DP  RH WIND       PRES   REMARKS
CHICAGO-OHARE  TSTM      66  64  93 N5G26     29.85R VSB 1/2
CHICAGO-MIDWAY CLOUDY    71  66  84 N12       29.83R THUNDER
MOLINE         MOCLDY    79  65  62 SW13      29.68F
ROCKFORD       CLOUDY    67  65  93 SE20      29.71F
PEORIA         MOCLDY    78  62  57 SW24G33   29.82R
$$

NOTE: "FAIR" INDICATES FEW OR NO CLOUDS BELOW 12,000 FEET WITH NO
SIGNIFICANT WEATHER AND/OR OBSTRUCTIONS TO VISIBILITY. WIND
SPEEDS ARE IN MILES-PER-HOUR.




USA.gov is the U.S. government's official web portal to all federal, state and local government web resources and services.